Location: Spring Creek
(38.2870°N, 100.2160°W)
Time: 09:23:18
(UTC+00:00)

NOSS 3-4 (C) - Pass Details

Date: 08 May 2021
Orbit: 873 x 1339 km, 63.4° (Epoch: 06 May)

Event Time Altitude Azimuth Distance (km) Brightness Sun altitude
Rises 05:30:33 0° 328° (NNW) 3,863 7.7 -32.4°
Reaches altitude 10° 05:33:06 10° 330° (NNW) 2,969 6.8 -32.5°
Maximum altitude 05:40:16 75° 56° (NE) 1,239 3.9 -33.0°
Enters shadow 05:40:22 75° 63° (ENE) 1,241 3.9 -33.0°
